sat.trackr.live / text

‹ back to catalog

STARLINK-36099

NORAD 66797 · 2025-278G

PAYLOAD ACTIVE UNKNOWN

§ Identity

Operator
Country
US
Launch date
2025-12-01
Launch site
AFETR
Launch vehicle
Mass (kg)
RCS (m²)

Purposes: comms

External: N2YO · Heavens-Above · Gunter

§ Orbital elements

Epoch: 2026-05-25T02:11:07.983168Z

Period
94.27 min
Inclination
43.0032°
Eccentricity
0.0001273
Mean motion
15.27595304 rev/d
Perigee alt
482.1 km
Apogee alt
483.9 km
Semi-major
6,861.1 km
B*
6.1867e-4
RAAN
42.9005°
Arg perigee
271.7346°
Mean anomaly
88.3359°
Rev number
2,689

§ Raw data

STARLINK-360991 66797U 25278G   26145.09106462  .00016809  00000+0  61867-3 0  99992 66797  43.0032  42.9005 0001273 271.7346  88.3359 15.27595304 26894

JSON: /api/v1/satellites/66797 · /tle

For live sub-satellite position, see the globe view (requires WebGL).

§ Visibility from observer

Set your observer location to see the next 7 days of passes ≥ 10°. The values pass through the URL so the page stays shareable.

No JS? Fill the form by hand. The geolocation button needs JavaScript.